| time (UTC) | temp C | wind direction | speed KPH | gust KPH | rain 1hr cm | rain 24hr cm | rain mn cm | humidity % | barometer mb |
| 20260508080845 | 8 | 0 | 0.0 | 0.0 | 0.00 | 0.00 | 0.00 | 90 | 1019.0 |
| 20260508080329 | 7 | 0 | 0.0 | 0.0 | 0.00 | 0.00 | 0.00 | 90 | 1019.0 |
| 20260508075816 | 7 | 0 | 0.0 | 0.0 | 0.00 | 0.00 | 0.00 | 90 | 1018.8 |
| 20260508075308 | 7 | 0 | 0.0 | 0.0 | 0.00 | 0.00 | 0.00 | 89 | 1018.9 |
| 20260508074750 | 7 | 0 | 0.0 | 0.0 | 0.00 | 0.00 | 0.00 | 89 | 1019.0 |
| 20260508074237 | 7 | 0 | 0.0 | 0.0 | 0.00 | 0.00 | 0.00 | 89 | 1019.0 |
| 20260508073211 | 7 | 0 | 0.0 | 0.0 | 0.00 | 0.00 | 0.00 | 89 | 1019.0 |
| 20260508072658 | 7 | 0 | 0.0 | 0.0 | 0.00 | 0.00 | 0.00 | 89 | 1019.0 |
| 20260508071632 | 7 | 0 | 0.0 | 0.0 | 0.00 | 0.00 | 0.00 | 88 | 1018.9 |
| 20260508071120 | 7 | 0 | 0.0 | 0.0 | 0.00 | 0.00 | 0.00 | 88 | 1018.8 |
| 20260508070606 | 7 | 0 | 0.0 | 0.0 | 0.00 | 0.00 | 0.00 | 88 | 1018.8 |
| 20260508070053 | 7 | 0 | 0.0 | 0.0 | 0.00 | 0.00 | 0.00 | 88 | 1018.7 |
| 20260508065540 | 7 | 0 | 0.0 | 0.0 | 0.00 | 0.00 | 0.00 | 88 | 1018.7 |
| 20260508065027 | 7 | 0 | 0.0 | 0.0 | 0.00 | 0.00 | 0.00 | 87 | 1018.8 |
| 20260508064001 | 7 | 0 | 0.0 | 0.0 | 0.00 | 0.00 | 0.00 | 87 | 1018.7 |
| 20260508063448 | 7 | 0 | 0.0 | 0.0 | 0.00 | 0.00 | 0.00 | 87 | 1018.8 |
| 20260508062935 | 7 | 0 | 0.0 | 0.0 | 0.00 | 0.00 | 0.00 | 87 | 1018.7 |
| 20260508062422 | 7 | 0 | 0.0 | 0.0 | 0.00 | 0.00 | 0.00 | 86 | 1018.6 |
| 20260508061909 | 7 | 0 | 0.0 | 0.0 | 0.00 | 0.00 | 0.00 | 86 | 1018.6 |
| 20260508061356 | 7 | 0 | 0.0 | 0.0 | 0.00 | 0.00 | 0.00 | 86 | 1018.5 |
| 20260508060843 | 7 | 0 | 0.0 | 0.0 | 0.00 | 0.00 | 0.00 | 86 | 1018.5 |
| 20260508060330 | 7 | 0 | 0.0 | 0.0 | 0.00 | 0.00 | 0.00 | 85 | 1018.6 |
| 20260508055817 | 7 | 0 | 0.0 | 0.0 | 0.00 | 0.00 | 0.00 | 85 | 1018.6 |
| 20260508055306 | 7 | 0 | 0.0 | 0.0 | 0.00 | 0.00 | 0.00 | 85 | 1018.5 |
| 20260508054751 | 7 | 0 | 0.0 | 0.0 | 0.00 | 0.00 | 0.00 | 85 | 1018.5 |
| 20260508053725 | 7 | 0 | 0.0 | 0.0 | 0.00 | 0.00 | 0.00 | 84 | 1018.5 |
| 20260508053212 | 7 | 0 | 0.0 | 0.0 | 0.00 | 0.00 | 0.00 | 84 | 1018.5 |
| 20260508052659 | 7 | 0 | 0.0 | 0.0 | 0.00 | 0.00 | 0.00 | 84 | 1018.5 |
| 20260508052146 | 7 | 0 | 0.0 | 0.0 | 0.00 | 0.00 | 0.00 | 83 | 1018.5 |
| 20260508051633 | 7 | 0 | 0.0 | 0.0 | 0.00 | 0.00 | 0.00 | 83 | 1018.5 |
| 20260508051121 | 8 | 0 | 0.0 | 0.0 | 0.00 | 0.00 | 0.00 | 83 | 1018.4 |
| 20260508050607 | 8 | 0 | 0.0 | 0.0 | 0.00 | 0.00 | 0.00 | 82 | 1018.4 |
| 20260508050054 | 8 | 0 | 0.0 | 0.0 | 0.00 | 0.00 | 0.00 | 82 | 1018.4 |
| 20260508045541 | 8 | 0 | 0.0 | 0.0 | 0.00 | 0.00 | 0.00 | 82 | 1018.5 |
| 20260508045028 | 8 | 0 | 0.0 | 0.0 | 0.00 | 0.00 | 0.00 | 82 | 1018.6 |
| 20260508044515 | 8 | 0 | 0.0 | 0.0 | 0.00 | 0.00 | 0.00 | 82 | 1018.5 |
| 20260508044002 | 8 | 0 | 0.0 | 0.0 | 0.00 | 0.00 | 0.00 | 82 | 1018.5 |
| 20260508043449 | 8 | 0 | 0.0 | 0.0 | 0.00 | 0.00 | 0.00 | 81 | 1018.5 |
| 20260508042936 | 8 | 0 | 0.0 | 0.0 | 0.00 | 0.00 | 0.00 | 81 | 1018.3 |
| 20260508042423 | 8 | 0 | 0.0 | 0.0 | 0.00 | 0.00 | 0.00 | 81 | 1018.4 |
| 20260508041910 | 8 | 0 | 0.0 | 0.0 | 0.00 | 0.00 | 0.00 | 81 | 1018.4 |
| 20260508041357 | 8 | 0 | 0.0 | 0.0 | 0.00 | 0.00 | 0.00 | 81 | 1018.3 |
| 20260508040844 | 8 | 0 | 0.0 | 0.0 | 0.00 | 0.00 | 0.00 | 80 | 1018.2 |
| 20260508040331 | 9 | 0 | 0.0 | 0.0 | 0.00 | 0.00 | 0.00 | 80 | 1018.3 |
| 20260508035818 | 9 | 0 | 0.0 | 0.0 | 0.00 | 0.00 | 0.00 | 80 | 1018.3 |
| 20260508035306 | 9 | 0 | 0.0 | 0.0 | 0.00 | 0.00 | 0.00 | 80 | 1018.3 |
| 20260508034752 | 10 | 0 | 0.0 | 0.0 | 0.00 | 0.00 | 0.00 | 79 | 1018.3 |
| 20260508034239 | 10 | 0 | 0.0 | 0.0 | 0.00 | 0.00 | 0.00 | 79 | 1018.4 |
| 20260508033726 | 10 | 0 | 0.0 | 0.0 | 0.00 | 0.00 | 0.00 | 79 | 1018.3 |
| 20260508033213 | 10 | 0 | 0.0 | 0.0 | 0.00 | 0.00 | 0.00 | 79 | 1018.2 |
| 20260508032700 | 10 | 0 | 0.0 | 0.0 | 0.00 | 0.00 | 0.00 | 79 | 1018.2 |
| 20260508032147 | 10 | 0 | 0.0 | 0.0 | 0.00 | 0.00 | 0.00 | 78 | 1018.1 |
| 20260508031634 | 10 | 0 | 0.0 | 0.0 | 0.00 | 0.00 | 0.00 | 78 | 1018.1 |
| 20260508031121 | 10 | 0 | 0.0 | 0.0 | 0.00 | 0.00 | 0.00 | 78 | 1018.0 |
| 20260508030608 | 10 | 0 | 0.0 | 0.0 | 0.00 | 0.00 | 0.00 | 78 | 1018.0 |
| 20260508030055 | 10 | 0 | 0.0 | 0.0 | 0.00 | 0.00 | 0.00 | 78 | 1017.9 |
| 20260508025542 | 10 | 0 | 0.0 | 8.0 | 0.00 | 0.00 | 0.00 | 77 | 1017.9 |
| 20260508025029 | 10 | 0 | 0.0 | 8.0 | 0.00 | 0.00 | 0.00 | 77 | 1017.9 |
| 20260508024517 | 10 | 0 | 0.0 | 8.0 | 0.00 | 0.00 | 0.00 | 77 | 1018.0 |
| 20260508024003 | 10 | 0 | 0.0 | 4.8 | 0.00 | 0.00 | 0.00 | 77 | 1018.0 |
| 20260508023450 | 11 | 0 | 0.0 | 4.8 | 0.00 | 0.00 | 0.00 | 77 | 1018.1 |
| 20260508022424 | 11 | 0 | 0.0 | 0.0 | 0.00 | 0.00 | 0.00 | 77 | 1017.8 |
| 20260508021911 | 11 | 53 | 8.0 | 14.5 | 0.00 | 0.00 | 0.00 | 76 | 1017.9 |
| 20260508021358 | 11 | 0 | 0.0 | 14.5 | 0.00 | 0.00 | 0.00 | 76 | 1018.0 |
| 20260508020845 | 11 | 91 | 9.7 | 14.5 | 0.00 | 0.00 | 0.00 | 76 | 1017.9 |
| 20260508020332 | 11 | 117 | 3.2 | 12.9 | 0.00 | 0.00 | 0.00 | 76 | 1018.1 |
| 20260508015819 | 11 | 0 | 0.0 | 9.7 | 0.00 | 0.00 | 0.00 | 76 | 1018.0 |
| 20260508014753 | 11 | 15 | 8.0 | 19.3 | 0.00 | 0.00 | 0.00 | 75 | 1018.0 |
| 20260508014240 | 11 | 280 | 1.6 | 19.3 | 0.00 | 0.00 | 0.00 | 76 | 1018.1 |
| 20260508013727 | 11 | 8 | 1.6 | 19.3 | 0.00 | 0.00 | 0.00 | 75 | 1018.1 |
| 20260508013214 | 11 | 303 | 1.6 | 14.5 | 0.00 | 0.00 | 0.00 | 76 | 1018.1 |
| 20260508012701 | 11 | 326 | 4.8 | 17.7 | 0.00 | 0.00 | 0.00 | 75 | 1018.1 |
| 20260508012148 | 11 | 337 | 6.4 | 17.7 | 0.00 | 0.00 | 0.00 | 75 | 1018.2 |
| 20260508011635 | 11 | 49 | 6.4 | 17.7 | 0.00 | 0.00 | 0.00 | 75 | 1018.1 |
| 20260508011122 | 11 | 44 | 4.8 | 11.3 | 0.00 | 0.00 | 0.00 | 75 | 1018.1 |
| 20260508010609 | 11 | 351 | 1.6 | 19.3 | 0.00 | 0.00 | 0.00 | 75 | 1018.2 |
| 20260508010056 | 11 | 302 | 1.6 | 19.3 | 0.00 | 0.00 | 0.00 | 74 | 1018.3 |
| 20260508005543 | 11 | 294 | 8.0 | 19.3 | 0.00 | 0.00 | 0.00 | 74 | 1018.2 |
| 20260508005030 | 11 | 317 | 3.2 | 16.1 | 0.00 | 0.00 | 0.00 | 75 | 1018.2 |
| 20260508004517 | 11 | 158 | 1.6 | 14.5 | 0.00 | 0.00 | 0.00 | 75 | 1018.1 |
| 20260508004004 | 11 | 126 | 6.4 | 17.7 | 0.00 | 0.00 | 0.00 | 74 | 1018.2 |
| 20260508003451 | 11 | 312 | 4.8 | 17.7 | 0.00 | 0.00 | 0.00 | 74 | 1018.4 |
| 20260508002938 | 11 | 357 | 6.4 | 17.7 | 0.00 | 0.00 | 0.00 | 75 | 1018.4 |
| 20260508002426 | 11 | 327 | 8.0 | 16.1 | 0.00 | 0.00 | 0.00 | 74 | 1018.5 |
| 20260508001912 | 12 | 288 | 8.0 | 14.5 | 0.00 | 0.00 | 0.00 | 74 | 1018.4 |
| 20260508001359 | 11 | 309 | 4.8 | 14.5 | 0.00 | 0.00 | 0.00 | 74 | 1018.6 |
| 20260508000846 | 11 | 322 | 6.4 | 14.5 | 0.00 | 0.00 | 0.00 | 74 | 1018.5 |
| 20260508000334 | 11 | 19 | 0.0 | 17.7 | 0.00 | 0.00 | 0.00 | 75 | 1018.4 |
| 20260507235820 | 11 | 0 | 4.8 | 17.7 | 0.00 | 0.00 | 0.00 | 74 | 1018.5 |
| 20260507235307 | 11 | 316 | 4.8 | 17.7 | 0.00 | 0.00 | 0.00 | 74 | 1018.6 |
| 20260507234754 | 11 | 308 | 8.0 | 17.7 | 0.00 | 0.00 | 0.00 | 74 | 1018.6 |
| 20260507234241 | 11 | 296 | 11.3 | 17.7 | 0.00 | 0.00 | 0.00 | 74 | 1018.6 |
| 20260507233727 | 11 | 329 | 8.0 | 17.7 | 0.00 | 0.00 | 0.00 | 75 | 1018.7 |
| 20260507233215 | 11 | 36 | 6.4 | 14.5 | 0.00 | 0.00 | 0.00 | 74 | 1018.7 |
| 20260507232702 | 11 | 1 | 4.8 | 12.9 | 0.00 | 0.00 | 0.00 | 74 | 1018.8 |
| 20260507231635 | 11 | 355 | 3.2 | 17.7 | 0.00 | 0.00 | 0.00 | 74 | 1018.9 |
| 20260507231123 | 11 | 40 | 6.4 | 17.7 | 0.00 | 0.00 | 0.00 | 74 | 1019.0 |
| 20260507230609 | 11 | 329 | 8.0 | 16.1 | 0.00 | 0.00 | 0.00 | 75 | 1018.9 |
| 20260507230057 | 11 | 42 | 6.4 | 16.1 | 0.00 | 0.00 | 0.00 | 74 | 1019.0 |
| 20260507225543 | 11 | 19 | 4.8 | 16.1 | 0.00 | 0.00 | 0.00 | 75 | 1019.1 |
| 20260507225030 | 12 | 135 | 6.4 | 16.1 | 0.00 | 0.00 | 0.00 | 75 | 1019.0 |
| 20260507224518 | 11 | 331 | 4.8 | 19.3 | 0.00 | 0.00 | 0.00 | 75 | 1019.2 |
| 20260507224006 | 12 | 357 | 4.8 | 19.3 | 0.00 | 0.00 | 0.00 | 75 | 1019.3 |
| 20260507223451 | 11 | 302 | 9.7 | 19.3 | 0.00 | 0.00 | 0.00 | 76 | 1019.3 |
| 20260507222938 | 11 | 323 | 11.3 | 17.7 | 0.00 | 0.00 | 0.00 | 75 | 1019.3 |
| 20260507222425 | 11 | 5 | 4.8 | 17.7 | 0.00 | 0.00 | 0.00 | 75 | 1019.3 |
| 20260507221912 | 11 | 331 | 8.0 | 16.1 | 0.00 | 0.00 | 0.00 | 75 | 1019.3 |
| 20260507221359 | 11 | 33 | 6.4 | 14.5 | 0.00 | 0.00 | 0.00 | 75 | 1019.4 |
| 20260507220846 | 11 | 43 | 9.7 | 14.5 | 0.00 | 0.00 | 0.00 | 75 | 1019.4 |
| 20260507220333 | 11 | 319 | 8.0 | 20.9 | 0.00 | 0.00 | 0.00 | 75 | 1019.5 |
| 20260507215820 | 11 | 103 | 6.4 | 20.9 | 0.00 | 0.00 | 0.00 | 75 | 1019.5 |
| 20260507214754 | 11 | 133 | 4.8 | 20.9 | 0.00 | 0.00 | 0.00 | 76 | 1019.5 |
| 20260507214241 | 11 | 287 | 8.0 | 20.9 | 0.00 | 0.00 | 0.00 | 75 | 1019.7 |
| 20260507213728 | 11 | 5 | 8.0 | 20.9 | 0.00 | 0.00 | 0.00 | 75 | 1019.6 |
| 20260507213215 | 12 | 18 | 6.4 | 19.3 | 0.00 | 0.00 | 0.00 | 76 | 1019.6 |
| 20260507212702 | 12 | 5 | 8.0 | 19.3 | 0.00 | 0.00 | 0.00 | 75 | 1019.6 |
| 20260507211637 | 12 | 316 | 4.8 | 16.1 | 0.00 | 0.00 | 0.00 | 75 | 1019.7 |
| 20260507211123 | 11 | 312 | 4.8 | 19.3 | 0.00 | 0.00 | 0.00 | 77 | 1019.6 |
| 20260507210610 | 11 | 19 | 8.0 | 19.3 | 0.00 | 0.00 | 0.00 | 76 | 1019.5 |
| 20260507210057 | 11 | 316 | 11.3 | 19.3 | 0.00 | 0.00 | 0.00 | 75 | 1019.5 |
| 20260507205544 | 12 | 35 | 6.4 | 17.7 | 0.00 | 0.00 | 0.00 | 76 | 1019.5 |
| 20260507205031 | 12 | 338 | 8.0 | 17.7 | 0.00 | 0.00 | 0.00 | 75 | 1019.4 |
| 20260507204518 | 12 | 303 | 8.0 | 16.1 | 0.00 | 0.00 | 0.00 | 76 | 1019.4 |
| 20260507204006 | 12 | 42 | 6.4 | 20.9 | 0.00 | 0.00 | 0.00 | 76 | 1019.4 |
| 20260507203452 | 12 | 39 | 1.6 | 20.9 | 0.00 | 0.00 | 0.00 | 76 | 1019.5 |
| 20260507202939 | 11 | 317 | 8.0 | 20.9 | 0.00 | 0.00 | 0.00 | 76 | 1019.5 |
| 20260507202426 | 11 | 313 | 11.3 | 19.3 | 0.00 | 0.00 | 0.00 | 76 | 1019.5 |
| 20260507201913 | 11 | 64 | 11.3 | 19.3 | 0.00 | 0.00 | 0.00 | 76 | 1019.5 |
| 20260507201400 | 11 | 46 | 6.4 | 19.3 | 0.00 | 0.00 | 0.00 | 77 | 1019.6 |
| 20260507200847 | 11 | 40 | 8.0 | 19.3 | 0.00 | 0.00 | 0.00 | 77 | 1019.6 |
| 20260507200335 | 11 | 23 | 9.7 | 19.3 | 0.00 | 0.00 | 0.00 | 76 | 1019.6 |
| 20260507195821 | 11 | 26 | 8.0 | 16.1 | 0.00 | 0.00 | 0.00 | 76 | 1019.7 |
| 20260507195308 | 11 | 316 | 6.4 | 14.5 | 0.00 | 0.00 | 0.00 | 77 | 1019.8 |
| 20260507194755 | 11 | 35 | 8.0 | 20.9 | 0.00 | 0.00 | 0.00 | 77 | 1019.8 |
| 20260507194242 | 11 | 47 | 9.7 | 20.9 | 0.00 | 0.00 | 0.00 | 77 | 1019.9 |
| 20260507193729 | 11 | 308 | 9.7 | 20.9 | 0.00 | 0.00 | 0.00 | 77 | 1019.8 |
| 20260507193216 | 11 | 12 | 6.4 | 19.3 | 0.00 | 0.00 | 0.00 | 77 | 1019.9 |
| 20260507192703 | 11 | 42 | 8.0 | 14.5 | 0.00 | 0.00 | 0.00 | 77 | 1020.0 |
| 20260507192151 | 11 | 39 | 6.4 | 17.7 | 0.00 | 0.00 | 0.00 | 78 | 1020.0 |
| 20260507191637 | 11 | 303 | 8.0 | 17.7 | 0.00 | 0.00 | 0.00 | 78 | 1020.0 |
| 20260507191125 | 11 | 53 | 8.0 | 17.7 | 0.00 | 0.00 | 0.00 | 78 | 1020.1 |
| 20260507190058 | 11 | 289 | 8.0 | 20.9 | 0.00 | 0.00 | 0.00 | 78 | 1020.1 |
| 20260507184519 | 12 | 15 | 9.7 | 17.7 | 0.00 | 0.00 | 0.00 | 78 | 1020.1 |
| 20260507184006 | 11 | 330 | 9.7 | 17.7 | 0.00 | 0.00 | 0.00 | 78 | 1020.1 |
| 20260507183453 | 11 | 70 | 4.8 | 16.1 | 0.00 | 0.00 | 0.00 | 80 | 1020.1 |
| 20260507182940 | 11 | 61 | 6.4 | 16.1 | 0.00 | 0.00 | 0.00 | 79 | 1020.2 |
| 20260507182427 | 11 | 357 | 4.8 | 16.1 | 0.00 | 0.00 | 0.00 | 79 | 1020.1 |
| 20260507181914 | 11 | 343 | 9.7 | 16.1 | 0.00 | 0.00 | 0.00 | 79 | 1020.3 |
| 20260507181401 | 11 | 0 | 0.0 | 19.3 | 0.00 | 0.00 | 0.00 | 80 | 1020.2 |
| 20260507180848 | 11 | 302 | 3.2 | 19.3 | 0.00 | 0.00 | 0.00 | 81 | 1020.2 |
| 20260507180335 | 11 | 331 | 11.3 | 19.3 | 0.00 | 0.00 | 0.00 | 80 | 1020.3 |
| 20260507175822 | 11 | 58 | 3.2 | 16.1 | 0.00 | 0.00 | 0.00 | 81 | 1020.3 |
| 20260507175309 | 11 | 310 | 9.7 | 16.1 | 0.00 | 0.00 | 0.00 | 81 | 1020.3 |
| 20260507174756 | 11 | 334 | 6.4 | 16.1 | 0.00 | 0.00 | 0.00 | 81 | 1020.3 |
| 20260507174245 | 11 | 15 | 6.4 | 16.1 | 0.00 | 0.00 | 0.00 | 82 | 1020.3 |
| 20260507173730 | 11 | 357 | 8.0 | 16.1 | 0.00 | 0.00 | 0.00 | 82 | 1020.3 |
| 20260507173217 | 11 | 291 | 8.0 | 16.1 | 0.00 | 0.00 | 0.00 | 82 | 1020.3 |
| 20260507172704 | 11 | 343 | 6.4 | 14.5 | 0.00 | 0.00 | 0.00 | 83 | 1020.3 |
| 20260507172152 | 11 | 78 | 0.0 | 14.5 | 0.00 | 0.00 | 0.00 | 83 | 1020.3 |
| 20260507171638 | 11 | 320 | 6.4 | 14.5 | 0.00 | 0.00 | 0.00 | 83 | 1020.4 |
| 20260507171125 | 11 | 319 | 9.7 | 14.5 | 0.00 | 0.00 | 0.00 | 83 | 1020.5 |
| 20260507170612 | 11 | 334 | 4.8 | 14.5 | 0.00 | 0.00 | 0.00 | 84 | 1020.6 |
| 20260507170059 | 11 | 25 | 0.0 | 12.9 | 0.00 | 0.00 | 0.00 | 84 | 1020.5 |
| 20260507165546 | 11 | 102 | 1.6 | 12.9 | 0.00 | 0.00 | 0.00 | 84 | 1020.5 |
| 20260507165033 | 11 | 338 | 3.2 | 11.3 | 0.00 | 0.00 | 0.00 | 85 | 1020.7 |
| 20260507164520 | 10 | 249 | 0.0 | 11.3 | 0.00 | 0.00 | 0.00 | 85 | 1020.6 |
| 20260507164007 | 10 | 9 | 0.0 | 11.3 | 0.00 | 0.00 | 0.00 | 85 | 1020.6 |
| 20260507162941 | 10 | 357 | 1.6 | 16.1 | 0.00 | 0.00 | 0.00 | 85 | 1020.7 |
| 20260507162428 | 10 | 0 | 0.0 | 16.1 | 0.00 | 0.00 | 0.00 | 86 | 1020.5 |
| 20260507161915 | 10 | 152 | 6.4 | 14.5 | 0.00 | 0.00 | 0.00 | 86 | 1020.6 |
| 20260507161402 | 10 | 0 | 0.0 | 12.9 | 0.00 | 0.00 | 0.00 | 86 | 1020.6 |
| 20260507160849 | 10 | 310 | 0.0 | 9.7 | 0.00 | 0.00 | 0.00 | 86 | 1020.6 |
| 20260507160336 | 10 | 0 | 0.0 | 9.7 | 0.00 | 0.00 | 0.00 | 87 | 1020.5 |
| 20260507155823 | 10 | 0 | 0.0 | 8.0 | 0.00 | 0.00 | 0.00 | 87 | 1020.5 |
| 20260507155310 | 10 | 32 | 0.0 | 6.4 | 0.00 | 0.00 | 0.00 | 87 | 1020.5 |
| 20260507154757 | 10 | 309 | 0.0 | 6.4 | 0.00 | 0.00 | 0.00 | 87 | 1020.5 |
| 20260507154244 | 10 | 312 | 0.0 | 6.4 | 0.00 | 0.00 | 0.00 | 87 | 1020.7 |
| 20260507153731 | 10 | 319 | 0.0 | 8.0 | 0.00 | 0.00 | 0.00 | 87 | 1020.6 |
| 20260507153218 | 10 | 299 | 3.2 | 8.0 | 0.00 | 0.00 | 0.00 | 87 | 1020.7 |
| 20260507152705 | 10 | 323 | 3.2 | 8.0 | 0.00 | 0.00 | 0.00 | 87 | 1020.7 |
| 20260507152152 | 10 | 324 | 0.0 | 4.8 | 0.00 | 0.00 | 0.00 | 87 | 1020.7 |
| 20260507151639 | 10 | 0 | 0.0 | 3.2 | 0.00 | 0.00 | 0.00 | 88 | 1020.7 |
| 20260507151126 | 10 | 57 | 0.0 | 3.2 | 0.00 | 0.00 | 0.00 | 88 | 1020.6 |
| 20260507150613 | 10 | 0 | 0.0 | 0.0 | 0.00 | 0.00 | 0.00 | 88 | 1020.6 |
| 20260507145547 | 10 | 0 | 0.0 | 0.0 | 0.00 | 0.00 | 0.00 | 88 | 1020.7 |
| 20260507145034 | 10 | 0 | 0.0 | 0.0 | 0.00 | 0.00 | 0.00 | 88 | 1020.6 |
| 20260507143455 | 10 | 0 | 0.0 | 0.0 | 0.00 | 0.00 | 0.00 | 89 | 1020.7 |
| 20260507142942 | 10 | 0 | 0.0 | 0.0 | 0.00 | 0.00 | 0.00 | 89 | 1020.6 |
| 20260507142429 | 10 | 0 | 0.0 | 0.0 | 0.00 | 0.00 | 0.00 | 88 | 1020.6 |
| 20260507141916 | 10 | 0 | 0.0 | 0.0 | 0.00 | 0.00 | 0.00 | 89 | 1020.6 |
| 20260507141403 | 10 | 0 | 0.0 | 0.0 | 0.00 | 0.00 | 0.00 | 89 | 1020.5 |
| 20260507140850 | 10 | 0 | 0.0 | 0.0 | 0.00 | 0.00 | 0.00 | 88 | 1020.6 |
| 20260507140337 | 10 | 0 | 0.0 | 0.0 | 0.00 | 0.00 | 0.00 | 88 | 1020.5 |
| 20260507135824 | 10 | 0 | 0.0 | 0.0 | 0.00 | 0.00 | 0.00 | 88 | 1020.6 |
| 20260507135311 | 10 | 0 | 0.0 | 0.0 | 0.00 | 0.00 | 0.00 | 88 | 1020.5 |
| 20260507134758 | 10 | 0 | 0.0 | 0.0 | 0.00 | 0.00 | 0.00 | 88 | 1020.5 |
| 20260507134245 | 10 | 0 | 0.0 | 0.0 | 0.00 | 0.00 | 0.00 | 88 | 1020.4 |
| 20260507133732 | 10 | 0 | 0.0 | 0.0 | 0.00 | 0.00 | 0.00 | 88 | 1020.4 |
| 20260507133219 | 10 | 0 | 0.0 | 0.0 | 0.00 | 0.00 | 0.00 | 88 | 1020.4 |
| 20260507132706 | 10 | 0 | 0.0 | 0.0 | 0.00 | 0.00 | 0.00 | 88 | 1020.4 |
| 20260507132153 | 10 | 0 | 0.0 | 0.0 | 0.00 | 0.00 | 0.00 | 88 | 1020.4 |
| 20260507131640 | 10 | 0 | 0.0 | 0.0 | 0.00 | 0.00 | 0.00 | 88 | 1020.4 |
| 20260507131127 | 10 | 0 | 0.0 | 0.0 | 0.00 | 0.00 | 0.00 | 88 | 1020.4 |
| 20260507130614 | 10 | 0 | 0.0 | 0.0 | 0.00 | 0.00 | 0.00 | 88 | 1020.4 |
| 20260507130101 | 10 | 0 | 0.0 | 0.0 | 0.00 | 0.00 | 0.00 | 88 | 1020.4 |
| 20260507125548 | 10 | 0 | 0.0 | 0.0 | 0.00 | 0.00 | 0.00 | 88 | 1020.3 |
| 20260507125035 | 10 | 0 | 0.0 | 0.0 | 0.00 | 0.00 | 0.00 | 88 | 1020.4 |
| 20260507124522 | 10 | 0 | 0.0 | 0.0 | 0.00 | 0.00 | 0.00 | 88 | 1020.3 |
| 20260507124009 | 10 | 0 | 0.0 | 0.0 | 0.00 | 0.00 | 0.00 | 88 | 1020.3 |
| 20260507123456 | 10 | 0 | 0.0 | 0.0 | 0.00 | 0.00 | 0.00 | 88 | 1020.3 |
| 20260507122943 | 10 | 0 | 0.0 | 0.0 | 0.00 | 0.00 | 0.00 | 88 | 1020.3 |
| 20260507122430 | 10 | 0 | 0.0 | 0.0 | 0.00 | 0.00 | 0.00 | 88 | 1020.3 |
| 20260507121404 | 10 | 0 | 0.0 | 0.0 | 0.00 | 0.00 | 0.00 | 88 | 1020.4 |
| 20260507120851 | 10 | 0 | 0.0 | 0.0 | 0.00 | 0.00 | 0.00 | 88 | 1020.4 |
| 20260507120338 | 10 | 0 | 0.0 | 0.0 | 0.00 | 0.00 | 0.00 | 88 | 1020.4 |
| 20260507115825 | 10 | 0 | 0.0 | 0.0 | 0.00 | 0.00 | 0.00 | 88 | 1020.5 |
| 20260507115312 | 10 | 0 | 0.0 | 0.0 | 0.00 | 0.00 | 0.00 | 88 | 1020.6 |
| 20260507114759 | 10 | 0 | 0.0 | 0.0 | 0.00 | 0.00 | 0.00 | 88 | 1020.6 |
| 20260507114246 | 10 | 0 | 0.0 | 0.0 | 0.00 | 0.00 | 0.00 | 88 | 1020.7 |
| 20260507113733 | 10 | 0 | 0.0 | 0.0 | 0.00 | 0.00 | 0.00 | 88 | 1020.7 |
| 20260507113220 | 10 | 0 | 0.0 | 0.0 | 0.00 | 0.00 | 0.00 | 88 | 1020.6 |
| 20260507112707 | 10 | 0 | 0.0 | 0.0 | 0.00 | 0.00 | 0.00 | 88 | 1020.6 |
| 20260507112155 | 10 | 0 | 0.0 | 0.0 | 0.00 | 0.00 | 0.00 | 88 | 1020.6 |
| 20260507111641 | 10 | 0 | 0.0 | 0.0 | 0.00 | 0.00 | 0.00 | 88 | 1020.6 |
| 20260507111219 | 10 | 0 | 0.0 | 0.0 | 0.00 | 0.00 | 0.00 | 88 | 1020.8 |
| 20260507111128 | 10 | 0 | 0.0 | 0.0 | 0.00 | 0.00 | 0.00 | 88 | 1020.8 |
| 20260507110615 | 10 | 0 | 0.0 | 0.0 | 0.00 | 0.00 | 0.00 | 88 | 1020.8 |
| 20260507105549 | 10 | 0 | 0.0 | 0.0 | 0.00 | 0.00 | 0.00 | 88 | 1020.8 |
| 20260507105036 | 10 | 0 | 0.0 | 0.0 | 0.00 | 0.00 | 0.00 | 88 | 1020.8 |
| 20260507104010 | 10 | 0 | 0.0 | 0.0 | 0.00 | 0.00 | 0.00 | 88 | 1020.9 |
| 20260507103456 | 10 | 0 | 0.0 | 0.0 | 0.00 | 0.00 | 0.00 | 88 | 1020.8 |
| 20260507102944 | 10 | 0 | 0.0 | 0.0 | 0.00 | 0.00 | 0.00 | 88 | 1020.9 |
| 20260507102430 | 10 | 0 | 0.0 | 11.3 | 0.00 | 0.00 | 0.00 | 88 | 1020.9 |
| 20260507101918 | 10 | 0 | 0.0 | 11.3 | 0.00 | 0.00 | 0.00 | 88 | 1020.9 |
| 20260507100852 | 10 | 0 | 0.0 | 3.2 | 0.00 | 0.00 | 0.00 | 89 | 1020.9 |
| 20260507100338 | 10 | 0 | 0.0 | 0.0 | 0.00 | 0.00 | 0.00 | 89 | 1021.0 |
| 20260507095825 | 10 | 0 | 0.0 | 0.0 | 0.00 | 0.00 | 0.00 | 89 | 1021.1 |
| 20260507095312 | 10 | 0 | 0.0 | 0.0 | 0.00 | 0.00 | 0.00 | 89 | 1021.1 |
| 20260507094759 | 10 | 0 | 0.0 | 0.0 | 0.00 | 0.00 | 0.00 | 89 | 1021.1 |
| 20260507093733 | 10 | 0 | 0.0 | 8.0 | 0.00 | 0.00 | 0.00 | 89 | 1021.2 |
| 20260507093220 | 10 | 67 | 0.0 | 8.0 | 0.00 | 0.00 | 0.00 | 89 | 1021.2 |
| 20260507092707 | 10 | 0 | 0.0 | 0.0 | 0.00 | 0.00 | 0.00 | 89 | 1021.3 |
| 20260507092154 | 10 | 0 | 0.0 | 0.0 | 0.00 | 0.00 | 0.00 | 89 | 1021.3 |
| 20260507091641 | 10 | 67 | 0.0 | 11.3 | 0.00 | 0.00 | 0.00 | 89 | 1021.4 |
| 20260507091128 | 10 | 0 | 0.0 | 11.3 | 0.00 | 0.00 | 0.00 | 89 | 1021.5 |
| 20260507090615 | 10 | 96 | 1.6 | 11.3 | 0.00 | 0.00 | 0.00 | 89 | 1021.5 |
| 20260507085549 | 10 | 0 | 0.0 | 8.0 | 0.00 | 0.00 | 0.00 | 89 | 1021.5 |
| 20260507085036 | 10 | 0 | 0.0 | 8.0 | 0.00 | 0.00 | 0.00 | 89 | 1021.6 |
| 20260507084523 | 10 | 0 | 0.0 | 0.0 | 0.00 | 0.00 | 0.00 | 89 | 1021.6 |
| 20260507084010 | 10 | 0 | 0.0 | 0.0 | 0.00 | 0.00 | 0.00 | 89 | 1021.6 |
| 20260507083457 | 10 | 0 | 0.0 | 0.0 | 0.00 | 0.00 | 0.00 | 89 | 1021.6 |
| 20260507082945 | 10 | 0 | 0.0 | 0.0 | 0.00 | 0.00 | 0.00 | 89 | 1021.6 |
| 20260507082431 | 10 | 0 | 0.0 | 0.0 | 0.00 | 0.00 | 0.00 | 89 | 1021.5 |
| 20260507081918 | 10 | 0 | 0.0 | 0.0 | 0.00 | 0.00 | 0.00 | 89 | 1021.6 |
| 20260507081405 | 10 | 0 | 0.0 | 0.0 | 0.00 | 0.00 | 0.00 | 89 | 1021.5 |